Location: *
(49.5667°N, 1.3667°W)
Time: 02:27:39
(UTC+00:00)

Cosmos 1605 Rocket - Pass Details

Date: 20 September 2019
Orbit: 945 x 1005 km, 82.9° (Epoch: 15 October)

Event Time Altitude Azimuth Distance (km) Brightness Sun altitude
Rises 21:27:37 0° 351° (N) 3,745 7.8 -30.0°
Reaches altitude 10° 21:30:12 10° 354° (N) 2,788 7.0 -30.3°
Enters shadow 21:35:46 62° 35° (NE) 1,120 4.2 -30.9°
